Regional Weather Roundup
Issued by NWS Sioux Falls, SD

Home | Current Version | Previous Version | Text Only | Print | Product List | Glossary On
Versions: 1 2 3 4 5 6 7 8 9 10 11 12 13 14 15 16 17 18 19 20 21 22 23 24 25 26 27 28 29 30 31 32 33 34 35 36 37 38 39 40 41 42 43 44 45 46 47 48 49 50
000
ASUS43 KFSD 260802
RWRFSD

WEATHER ROUNDUP FOR SE SOUTH DAKOTA/SW MINNESOTA/NW IOWA
NATIONAL WEATHER SERVICE SIOUX FALLS SD
300 AM CDT THU MAY 26 2016

NOTE: "FAIR" INDICATES FEW OR NO CLOUDS BELOW 12,000 FEET WITH NO
SIGNIFICANT WEATHER AND OR OBSTRUCTIONS TO VISIBILITY.


SDZ038>040-050-052>070-260900-
SOUTHEAST SOUTH DAKOTA

CITY           SKY/WX    TMP DP  RH WIND       PRES   REMARKS
BROOKINGS      CLOUDY    55  52  89 S6        29.81R
CHAMBERLAIN    NOT AVBL
HURON          PTCLDY    54  50  86 W7        29.83R
MADISON        FAIR      57  57 100 W8        29.83R
MITCHELL       PTCLDY    60  53  77 NW8       29.84R
SIOUX FALLS    CLOUDY    59  56  89 W3        29.80S
WINNER         FAIR      53  49  86 SW6       29.87F
YANKTON        CLOUDY    59  55  88 W9        29.82F
$$

MNZ071-072-080-081-089-090-097-098-260900-
SOUTHWEST MINNESOTA

CITY           SKY/WX    TMP DP  RH WIND       PRES   REMARKS
FAIRMONT       CLOUDY    63  45  51 N12       29.77F
JACKSON        CLOUDY    59  54  82 CALM      29.80S
LUVERNE        CLOUDY    59  52  77 W7        29.80F
MARSHALL       CLOUDY    65  51  60 SW12      29.77R
MONTEVIDEO     MOCLDY    61  50  67 W5        29.77R
PIPESTONE      CLOUDY    59  55  88 W7        29.80S
REDWOOD FALLS  CLOUDY    63  55  75 E6        29.79R
TRACY          CLOUDY    64  55  70 SW12      29.77R
WINDOM         CLOUDY    59  54  82 CALM      29.78F
WORTHINGTON    CLOUDY    61  53  75 S9        29.80S
$$

IAZ001>003-012>014-020>022-031-032-NEZ013-014-SDZ071-260900-
NORTHWEST IOWA

CITY           SKY/WX    TMP DP  RH WIND       PRES   REMARKS
DENISON        CLOUDY    59  55  88 NE6G16    29.86R
ESTHERVILLE    LGT RAIN  61  54  77 SW20G26   29.81F
SIOUX CITY     CLOUDY    61  58  90 NW10G18   29.80F
SPENCER        LGT RAIN  61  54  77 N10       29.78F
STORM LAKE     CLOUDY    61  55  82 S12G26    29.89R
$$

ABBREVIATIONS USED IN REMARKS
   TC - TEMPERATURE IN CELSIUS
  WCI - WIND CHILL INDEX
   HX - HEAT INDEX
  VSB - VISIBILITY




USA.gov is the U.S. government's official web portal to all federal, state and local government web resources and services.